Flag for Italy Weather past 2 weeks in Venice, Italy

Now
66 °F

Fog.


Feels Like: 66 °F
Forecast: 60 / 71 °F
Wind: 1 mph from North

Location: Venice / Tessera

Current Time: Sep 21, 2014 at 6:37:30 AM

Latest Report: Sep 21, 2014 at 5:50 AM


Visibility: 2 mi

Pressure: 29.95 "Hg

Humidity: 94%

Dew point: 64 °F

Location of VeniceLocation

Historic Weather in Venice — Graph

°F

Venice temperature yesterday

Maximum temperature yesterday: 73 °F (at 12:20 PM)
Minimum temperature yesterday: 64 °F (at 4:50 AM)
Average temperature yesterday: 68 °F

Past Weeks' High & Low Weather Summary

 TemperatureHumidityPressure
High84 °F (Sep 7, 2:50 AM)100% (Sep 10, 7:50 AM)30.09 "Hg (Sep 10, 7:50 AM)
Low57 °F (Sep 14, 7:20 AM)45% (Sep 7, 2:50 AM)29.80 "Hg (Sep 11, 5:20 AM)
Average68 °F78%29.96 "Hg
* Reported Sep 6 5:20 AM — Sep 21 5:20 AM, Venice, Weather by CustomWeather, © 2014

Note: Actual official high and low records may vary slightly from our data, if they occured in-between our weather recording intervals... More about our weather records

Advertising

Venice weather history for previous 24 hours

 ConditionsComfort  
Time TempWeatherWind HumidityBarometerVisibility
5:20 AM
Sep 21
66 °FFog.No wind88%29.95 "Hg1 mi
4:50 AM66 °FFog.1 mph94%29.98 "Hg2 mi
4:20 AM66 °FFog.1 mph94%29.98 "Hg3 mi
3:50 AM68 °FFog.1 mph94%29.98 "Hg3 mi
3:20 AM68 °FFog.No wind94%29.98 "Hg3 mi
2:50 AM68 °FPassing clouds.5 mph94%29.98 "Hg4 mi
2:20 AM68 °FPassing clouds.2 mph94%29.98 "Hg4 mi
1:50 AM68 °FPassing clouds.No wind94%29.98 "Hg5 mi
1:20 AM68 °FPassing clouds.No wind94%29.98 "HgN/A
12:50 AM68 °FPassing clouds.1 mph94%29.98 "Hg6 mi
12:20 AM70 °FPassing clouds.1 mph88%29.98 "HgN/A
11:50 PM
Sep 20
70 °FPassing clouds.No wind88%29.98 "HgN/A
11:20 PM70 °FPassing clouds.2 mph88%29.98 "HgN/A
10:20 PM70 °FPassing clouds.3 mph88%29.98 "Hg6 mi
9:50 PM70 °FPassing clouds.3 mph94%29.98 "Hg5 mi
9:20 PM70 °FPassing clouds.3 mph94%29.98 "Hg5 mi
8:50 PM70 °FPassing clouds.3 mph88%29.98 "Hg4 mi
8:20 PM70 °FPassing clouds.2 mph94%29.98 "Hg4 mi
7:50 PM70 °FPartly sunny.3 mph94%29.98 "Hg4 mi
3:20 PM72 °FScattered clouds.5 mph83%30.01 "Hg4 mi
2:50 PM70 °FBroken clouds.6 mph88%30.01 "Hg6 mi
2:20 PM70 °FBroken clouds.5 mph83%30.01 "Hg6 mi
1:50 PM70 °FBroken clouds.6 mph83%30.04 "Hg6 mi
1:20 PM72 °FBroken clouds.3 mph78%30.04 "Hg6 mi
12:50 PM73 °FScattered clouds.7 mph74%30.01 "Hg6 mi
12:20 PM73 °FScattered clouds.2 mph74%30.01 "Hg6 mi
11:50 AM72 °FScattered clouds.1 mph88%30.01 "Hg5 mi
11:20 AM68 °FScattered clouds.2 mph88%30.01 "Hg4 mi
10:50 AM66 °FFog.1 mph94%30.01 "Hg3 mi
10:20 AM66 °FFog.3 mph83%30.01 "Hg2 mi
9:50 AM64 °FFog.5 mph100%30.01 "Hg2 mi
9:20 AM66 °FFog.6 mph94%30.01 "Hg2 mi
8:50 AM66 °FFog.3 mph94%30.01 "Hg2 mi
8:20 AM64 °FFog.2 mph100%30.01 "Hg2 mi
7:50 AM64 °FFog.5 mph100%30.01 "Hg2 mi
7:20 AM64 °FFog.6 mph94%30.01 "Hg2 mi
6:50 AM64 °FFog.2 mph94%30.01 "Hg2 mi
6:20 AM64 °FFog.2 mph94%30.01 "Hg2 mi
Weather by CustomWeather, © 2014

See weather overviewHow to use our weather pages